Stations météo

réclame
Mon MeteoGroup
Palermo/Punta Raisi, Italie (16405): Température de l'air & dewpoint: 16.10.2017 10:00:00 - 22.10.2017 10:00:00 (CEST)Palermo/Punta Raisi, Italie (16405): Vitesse du vent: 16.10.2017 10:00:00 - 22.10.2017 10:00:00 (CEST)Palermo/Punta Raisi, Italie (16405): Direction du vent: 16.10.2017 10:00:00 - 22.10.2017 10:00:00 (CEST)Palermo/Punta Raisi, Italie (16405): reduced air pressure: 16.10.2017 10:00:00 - 22.10.2017 10:00:00 (CEST)Palermo/Punta Raisi, Italie (16405): visibility: 16.10.2017 10:00:00 - 22.10.2017 10:00:00 (CEST)Palermo/Punta Raisi, Italie (16405): Quantités de précipitations: 16.10.2017 10:00:00 - 22.10.2017 10:00:00 (CEST)
Date & Time tt [°C] td [°C] ff [km/h] ff [knt] dd ppp [hPa] vv [km] rr [mm]
22.10.2017 10:00:00 21,0 16,0 8 4 - - 10 -
22.10.2017 09:00:00 18,0 15,0 5 3 S - 10 -
22.10.2017 08:00:00 18,2 14,4 5 3 S 1020,6 10 -
22.10.2017 07:00:00 17,0 13,0 8 4 S - 10 -
22.10.2017 06:00:00 17,0 14,0 4 2 - - 10 -
22.10.2017 05:00:00 18,5 14,4 4 2 - 1020,3 10 0,0
22.10.2017 04:00:00 - - - - - - - -
22.10.2017 03:00:00 - - - - - - - -
22.10.2017 02:00:00 17,8 14,9 5 3 SSE 1021,4 - -
22.10.2017 01:00:00 19,0 16,0 16 9 NNE - 10 -
22.10.2017 00:00:00 19,0 16,0 4 2 SE - 10 -
21.10.2017 23:00:00 18,9 15,7 5 3 - 1021,2 10 0,0
21.10.2017 22:00:00 - - - - - - - -
21.10.2017 21:00:00 21,0 17,0 13 7 ENE - 10 -
21.10.2017 20:00:00 20,9 17,2 9 5 E 1020,9 10 -
21.10.2017 19:00:00 22,0 18,0 34 18 NE - 10 -
21.10.2017 18:00:00 23,0 17,0 37 20 NE - 10 -
21.10.2017 17:00:00 23,0 17,6 37 20 NE 1020,1 10 0,0
21.10.2017 16:00:00 23,0 18,0 35 19 NE - 10 -
21.10.2017 15:00:00 24,0 18,0 35 19 NE - 10 -
21.10.2017 14:00:00 24,1 16,9 31 17 NE 1020,5 10 -
21.10.2017 13:00:00 24,0 17,0 31 17 NE - 10 -
21.10.2017 12:00:00 22,0 17,0 5 3 NW - 10 -
21.10.2017 11:00:00 23,1 17,0 28 15 NE 1021,0 10 0,0
21.10.2017 10:00:00 21,0 16,0 9 5 - - 10 -
21.10.2017 09:00:00 19,0 15,0 8 4 ENE - 10 -
21.10.2017 08:00:00 18,7 13,7 8 4 SSE 1020,0 10 -
21.10.2017 07:00:00 19,0 16,0 21 11 NE - 10 -
21.10.2017 06:00:00 19,0 14,0 9 5 SE - 10 -
21.10.2017 05:00:00 19,3 13,9 8 4 S 1019,6 10 0,0
21.10.2017 04:00:00 18,0 14,0 8 4 - - 10 -
21.10.2017 03:00:00 20,0 14,0 9 5 NNE - 10 -
21.10.2017 02:00:00 19,8 14,1 5 3 - 1019,5 10 -
21.10.2017 01:00:00 20,0 13,0 9 5 E - 10 -
21.10.2017 00:00:00 19,0 14,0 4 2 - - 10 -
20.10.2017 23:00:00 19,3 14,6 8 4 E 1019,3 10 0,0
20.10.2017 22:00:00 20,0 15,0 8 4 SSW - 10 -
20.10.2017 21:00:00 21,0 17,0 5 3 - - 10 -
20.10.2017 20:00:00 21,4 16,9 5 3 - 1018,2 10 -
20.10.2017 19:00:00 22,0 17,0 5 3 - - 10 -
20.10.2017 18:00:00 23,0 17,0 8 4 - - 10 -
20.10.2017 17:00:00 24,3 16,0 31 17 NE 1016,8 10 0,0
20.10.2017 16:00:00 25,0 16,0 34 18 NE - 10 -
20.10.2017 15:00:00 25,0 18,0 29 16 NE - 10 -
20.10.2017 14:00:00 24,3 16,6 29 16 NE 1017,1 10 -
20.10.2017 13:00:00 23,0 17,0 9 5 N - 10 -
20.10.2017 12:00:00 22,0 16,0 4 2 - - 10 -
20.10.2017 11:00:00 21,8 16,0 8 4 NW 1017,7 10 0,0
20.10.2017 10:00:00 22,0 15,0 8 4 - - 10 -
20.10.2017 09:00:00 18,0 14,0 8 4 S - 10 -
20.10.2017 08:00:00 16,5 12,7 9 5 S 1016,4 10 -
20.10.2017 07:00:00 16,0 12,0 4 2 - - 10 -
20.10.2017 06:00:00 17,0 12,0 5 3 SE - 10 -
20.10.2017 05:00:00 18,6 14,0 16 9 NE 1016,3 10 0,0
20.10.2017 04:00:00 17,0 12,0 5 3 S - 10 -
20.10.2017 03:00:00 18,0 12,0 4 2 S - 10 -
20.10.2017 02:00:00 16,9 11,6 8 4 S 1016,6 10 -
20.10.2017 01:00:00 19,0 13,0 5 3 - - 10 -
20.10.2017 00:00:00 19,0 13,0 5 3 SE - 10 -
19.10.2017 23:00:00 18,8 14,3 8 4 - 1016,9 10 0,0
19.10.2017 22:00:00 20,0 14,0 4 2 - - 10 -
19.10.2017 21:00:00 21,0 14,0 5 3 E - 10 -
19.10.2017 20:00:00 20,8 14,3 9 5 - 1016,7 10 -
19.10.2017 19:00:00 21,0 13,0 22 12 ENE - 10 -
19.10.2017 18:00:00 23,0 13,0 28 15 NE - 10 -
19.10.2017 17:00:00 22,9 12,6 34 18 NE 1016,4 10 0,0
19.10.2017 16:00:00 23,0 13,0 34 18 NE - 10 -
19.10.2017 15:00:00 23,0 13,0 29 16 NE - 10 -
19.10.2017 14:00:00 22,3 13,9 26 14 NE 1017,6 10 -
19.10.2017 13:00:00 22,0 14,0 24 13 NNE - 10 -
19.10.2017 12:00:00 22,0 15,0 15 8 NNE - 10 -
19.10.2017 11:00:00 21,5 15,2 18 10 NNE 1018,7 10 0,0
19.10.2017 10:00:00 21,0 15,0 4 2 SE - 10 -
19.10.2017 09:00:00 18,0 12,0 8 4 SE - 10 -
19.10.2017 08:00:00 15,9 11,2 9 5 SSE 1017,9 10 -
19.10.2017 07:00:00 16,0 13,0 8 4 SSE - 10 -
19.10.2017 06:00:00 - - - - - - - -
19.10.2017 05:00:00 17,0 13,4 11 6 S 1018,1 10 0,0
19.10.2017 04:00:00 18,0 14,0 13 7 S - 10 -
19.10.2017 03:00:00 19,0 15,0 16 9 SSW - 10 -
19.10.2017 02:00:00 19,3 14,6 9 5 - 1018,8 10 -
19.10.2017 01:00:00 17,0 14,0 8 4 - - 10 -
19.10.2017 00:00:00 17,0 14,0 8 4 S - 10 -
18.10.2017 23:00:00 18,3 14,1 5 3 S 1018,9 10 0,0
18.10.2017 22:00:00 19,0 14,0 5 3 SSE - 10 -
18.10.2017 21:00:00 20,0 15,0 5 3 E - 10 -
18.10.2017 20:00:00 19,9 15,0 24 13 NE 1018,9 10 -
18.10.2017 19:00:00 21,0 15,0 28 15 NE - 10 -
18.10.2017 18:00:00 22,0 16,0 29 16 NE - 10 -
18.10.2017 17:00:00 22,1 16,2 31 17 NE 1018,5 10 0,0
18.10.2017 16:00:00 22,0 16,0 28 15 NNE - 10 -
18.10.2017 15:00:00 22,0 16,0 29 16 NNE - 10 -
18.10.2017 14:00:00 21,9 16,0 9 5 NNE 1019,9 10 -
18.10.2017 13:00:00 22,0 15,0 9 5 WNW - 10 -
18.10.2017 12:00:00 21,0 15,0 8 4 NW - 10 -
18.10.2017 11:00:00 21,0 14,9 8 4 - 1021,5 10 0,0
18.10.2017 10:00:00 20,0 15,0 8 4 - - 10 -
18.10.2017 09:00:00 16,0 14,0 8 4 S - 10 -
18.10.2017 08:00:00 15,4 13,3 5 3 S 1021,2 10 -
18.10.2017 07:00:00 16,0 14,0 9 5 ENE - 10 -
18.10.2017 06:00:00 17,0 14,0 2 1 - - 10 -
18.10.2017 05:00:00 16,0 14,1 8 4 S 1021,4 10 0,0
18.10.2017 04:00:00 17,0 16,0 2 1 SE - 10 -
18.10.2017 03:00:00 18,0 16,0 2 1 - - 10 -
18.10.2017 02:00:00 17,4 15,2 8 4 SSE 1022,5 10 -
18.10.2017 01:00:00 17,0 15,0 8 4 SSE - 10 -
18.10.2017 00:00:00 17,0 15,0 9 5 S - 10 -
17.10.2017 23:00:00 17,1 14,5 8 4 S 1023,3 10 0,0
17.10.2017 22:00:00 19,0 16,0 5 3 S - 10 -
17.10.2017 21:00:00 19,0 16,0 8 4 SE - 10 -
17.10.2017 20:00:00 19,8 16,6 24 13 NE 1023,3 10 -
17.10.2017 19:00:00 21,0 17,0 28 15 NE - 10 -
17.10.2017 18:00:00 21,0 17,0 28 15 NNE - 10 -
17.10.2017 17:00:00 21,8 16,8 28 15 NNE 1023,4 10 0,0
17.10.2017 16:00:00 22,0 17,0 31 17 NE - 10 -
17.10.2017 15:00:00 22,0 17,0 24 13 NNE - 10 -
17.10.2017 14:00:00 22,2 14,8 11 6 NNE 1024,7 10 -
17.10.2017 13:00:00 22,0 15,0 5 3 NNW - 10 -
17.10.2017 12:00:00 21,0 16,0 8 4 N - 10 -
17.10.2017 11:00:00 21,0 15,6 4 2 - 1026,2 10 0,0
17.10.2017 10:00:00 20,0 16,0 4 2 WNW - 10 -
17.10.2017 09:00:00 18,0 13,0 5 3 S - 10 -
17.10.2017 08:00:00 16,2 12,2 4 2 - 1025,4 10 -
17.10.2017 07:00:00 16,0 13,0 2 1 - - 10 -
17.10.2017 06:00:00 18,0 14,0 4 2 - - 10 -
17.10.2017 05:00:00 15,6 12,1 8 4 S 1025,2 10 0,0
17.10.2017 04:00:00 16,0 13,0 8 4 S - 10 -
17.10.2017 03:00:00 16,0 13,0 8 4 S - 10 -
17.10.2017 02:00:00 18,0 14,5 18 10 NE 1026,0 10 -
17.10.2017 01:00:00 18,0 14,0 4 2 - - 10 -
17.10.2017 00:00:00 16,0 12,0 8 4 SSE - 10 -
16.10.2017 23:00:00 16,8 13,3 5 3 S 1026,6 10 0,0
16.10.2017 22:00:00 18,0 14,0 5 3 SSE - 10 -
16.10.2017 21:00:00 18,0 14,0 8 4 S - 10 -
16.10.2017 20:00:00 19,8 15,5 22 12 NE 1026,6 10 -
16.10.2017 19:00:00 21,0 16,0 28 15 NE - 10 -
16.10.2017 18:00:00 22,0 16,0 34 18 NE - 10 -
16.10.2017 17:00:00 22,3 16,2 35 19 NE 1025,9 10 0,0
16.10.2017 16:00:00 22,0 17,0 35 19 NE - 10 -
16.10.2017 15:00:00 22,0 16,0 34 18 NE - 10 -
16.10.2017 14:00:00 22,2 15,7 28 15 NNE 1026,9 10 -
16.10.2017 13:00:00 22,0 16,0 5 3 WNW - 10 -
16.10.2017 12:00:00 21,0 15,0 9 5 NW - 10 -
16.10.2017 11:00:00 21,4 14,0 18 10 NNE 1027,7 10 0,0
16.10.2017 10:00:00 20,0 14,0 5 3 - - 10 -

tt = Température de l'air
td = dewpoint
ff = Vitesse du vent
dd = Direction du vent
ppp = reduced air pressure
vv = visibility
rr = Quantités de précipitations

stations d'obs. à proximité